BSAT-2C 1 27830U 03028A 21060.64585774 .00000009 00000-0 00000-0 0 9997 2 27830 5.8518 67.3733 0008175 270.9861 258.8435 0.99201496 27477 OPTUS C1 1 27831U 03028B 21060.68452387 -.00000157 00000-0 00000-0 0 9990 2 27831 2.0349 91.5830 0005604 250.2611 219.9596 1.00272425 33672 ARIANE 5 R/B 1 27832U 03028C 21060.31634997 -.00000032 00000-0 -47707-3 0 9991 2 27832 6.6590 127.8030 7176936 306.0614 7.0730 2.24764077145567 ARIANE 5 DEB [SYLDA] 1 27833U 03028D 21060.92265741 .00000066 00000-0 80703-3 0 9994 2 27833 6.4433 123.0072 7156271 317.5587 264.6886 2.26095365146318